Location: Newark
(49.3000°N, 9.4667°E)
Time: 01:39:06
(UTC+00:00)

Tiros 1 - Pass Details

Date: 02 June 2019
Orbit: 631 x 664 km, 48.4° (Epoch: 15 June)

Event Time Altitude Azimuth Distance (km) Brightness Sun altitude
Rises 12:50:34 0° 279° (W) 2,939 10.8 57.5°
Reaches altitude 10° 12:53:52 10° 255° (WSW) 2,033 10.3 57.2°
Maximum altitude 12:56:20 14° 223° (SW) 1,764 10.2 56.9°
Drops below altitude 10° 12:58:49 10° 190° (S) 2,038 10.3 56.6°
Sets 13:02:08 0° 166° (SSE) 2,952 10.8 56.2°
